Weather History for Branson, MO

Change the Weather History Date:

Thursday, December 20, 2012

  Actual Average (KHRO) Record (KHRO)
Temperature  
Mean Temperature 42 °F 37 °F  
Max Temperature 55 °F 46 °F 69 °F (1966)
Min Temperature 28 °F 27 °F -5 °F (1901)
Degree Days  
Heating Degree Days 24 28  
Month to date heating degree days 518  
Since 1 July heating degree days 1282  
Cooling Degree Days 0 0  
Month to date cooling degree days 0  
Year to date cooling degree days 1416  
Moisture  
Dew Point 28 °F    
Average Humidity 65    
Maximum Humidity 88    
Minimum Humidity 47    
Precipitation  
Precipitation 0.00 in 0.10 in 0.88 in (1991)
Month to date precipitation 2.15  
Year to date precipitation 43.09  
Snow  
Snow 0.00 in 0.10 in T in (2012)
Month to date snowfall 0.2  
Since 1 July snowfall 0.7  
Snow Depth -    
Sea Level Pressure  
Sea Level Pressure 29.83 in    
Wind  
Wind Speed 14 mph (West)    
Max Wind Speed 26 mph    
Max Gust Speed 52 mph    
Visibility 9 miles    
Events Rain , Snow    
T = Trace of Precipitation, MM = Missing Value Source: NWS Daily Summary

Daily Weather History Graph

Daily Weather History Graph

Search for Another Location

Airport:

Trip Planner

Search our weather history database for the weather conditions in past years. The results will help you decide how hot, cold, wet, or windy it might be!

Date:

Astronomy

Dec. 20, 2012 Rise Set
Actual Time 7:20 AM CST 5:00 PM CST
Civil Twilight 6:51 AM CST 5:29 PM CST
Nautical Twilight 6:19 AM CST 6:01 PM CST
Astronomical Twilight 5:48 AM CST 6:33 PM CST
Moon 12:11 PM CST (12/20) 12:17 AM CST (12/20)
Length of Visible Light 10h 37m
Length of Day
9h 39m
First Quarter, 55% of the Moon is Illuminated
Dec 20
First Quarter
Dec 28
Full
Jan 4
Last Quarter
Jan 11
New
Jan 18
First Quarter

Hourly Weather History & Observations

Time (CST) Temp. Windchill Dew Point Humidity Pressure Visibility Wind Dir Wind Speed Gust Speed Precip Events Conditions
12:15 AM 55.4 °F - 51.8 °F 88% 29.45 in 10.0 mi South 6.9 mph - N/A   Overcast
12:35 AM 55.4 °F - 51.8 °F 88% 29.44 in 10.0 mi South 6.9 mph - N/A   Overcast
12:55 AM 55.4 °F - 51.8 °F 88% 29.44 in 10.0 mi South 6.9 mph - N/A   Mostly Cloudy
1:15 AM 55.4 °F - 50.0 °F 82% 29.44 in 8.0 mi SW 10.4 mph 18.4 mph N/A   Scattered Clouds
1:35 AM 55.4 °F - 48.2 °F 77% 29.44 in 8.0 mi SW 10.4 mph 19.6 mph N/A   Partly Cloudy
1:55 AM 55.4 °F - 48.2 °F 77% 29.43 in 8.0 mi SW 9.2 mph - N/A   Mostly Cloudy
2:15 AM 55.4 °F - 46.4 °F 72% 29.43 in 8.0 mi SW 11.5 mph 18.4 mph N/A   Scattered Clouds
2:35 AM 53.6 °F - 42.8 °F 67% 29.43 in 10.0 mi WSW 15.0 mph 20.7 mph N/A   Scattered Clouds
2:55 AM 53.6 °F - 41.0 °F 62% 29.44 in 10.0 mi WSW 15.0 mph 20.7 mph N/A   Scattered Clouds
3:15 AM 51.8 °F - 33.8 °F 50% 29.45 in 10.0 mi WSW 23.0 mph 34.5 mph N/A   Partly Cloudy
3:35 AM 48.2 °F - 32.0 °F 54% 29.47 in 10.0 mi WSW 13.8 mph 31.1 mph N/A   Clear
3:55 AM 46.4 °F 38.3 °F 33.8 °F 62% 29.48 in 10.0 mi WSW 23.0 mph 34.5 mph N/A   Scattered Clouds
4:15 AM 46.4 °F 39.2 °F 35.6 °F 66% 29.49 in 10.0 mi WSW 18.4 mph 29.9 mph N/A   Overcast
4:35 AM 44.6 °F 35.5 °F 37.4 °F 76% 29.51 in 9.0 mi WSW 25.3 mph 39.1 mph N/A   Mostly Cloudy
4:55 AM 41.0 °F 32.5 °F 37.4 °F 87% 29.52 in 10.0 mi West 17.3 mph 32.2 mph N/A   Overcast
5:15 AM 39.2 °F 28.7 °F 33.8 °F 81% 29.55 in 9.0 mi West 23.0 mph 40.3 mph N/A   Overcast
5:35 AM 37.4 °F 27.8 °F 30.2 °F 75% 29.57 in 10.0 mi West 17.3 mph 39.1 mph N/A   Overcast
6:45 AM 33.8 °F 21.6 °F 28.4 °F 81% 29.64 in 5.0 mi WNW 23.0 mph 35.7 mph N/A Rain Light Rain
7:45 AM 32.0 °F 20.8 °F 26.6 °F 80% 29.70 in 5.0 mi West 17.3 mph 26.5 mph N/A Snow Light Snow
8:45 AM 32.0 °F 20.5 °F 24.8 °F 75% 29.76 in 4.0 mi WNW 18.4 mph 35.7 mph N/A Snow Light Snow
9:45 AM 32.0 °F 19.8 °F 26.6 °F 80% 29.81 in 5.0 mi WNW 20.7 mph 32.2 mph N/A   Overcast
10:53 AM 32.0 °F 18.4 °F 24.8 °F 75% 29.86 in 10.0 mi WNW 26.5 mph 51.8 mph N/A   Overcast
11:58 AM 32.0 °F 20.5 °F 23.0 °F 69% 29.91 in 10.0 mi WNW 18.4 mph 40.3 mph N/A   Overcast
12:45 PM 32.0 °F 19.8 °F 23.0 °F 69% 29.92 in 10.0 mi WNW 20.7 mph 39.1 mph N/A   Overcast
2:45 PM 35.6 °F 24.5 °F 19.4 °F 52% 29.99 in 10.0 mi WNW 20.7 mph 44.9 mph N/A   Partly Cloudy
3:53 PM 35.6 °F 24.5 °F 17.6 °F 48% 30.04 in 10.0 mi WNW 20.7 mph 34.5 mph N/A   Partly Cloudy
4:50 PM 35.6 °F 25.9 °F 17.6 °F 48% 30.08 in 10.0 mi WNW 16.1 mph 29.9 mph N/A   Clear
5:45 PM 33.8 °F 23.2 °F 17.6 °F 52% 30.11 in 10.0 mi WNW 17.3 mph 36.8 mph N/A   Clear
6:45 PM 32.0 °F 20.8 °F 17.6 °F 55% 30.14 in 10.0 mi WNW 17.3 mph 35.7 mph N/A   Clear
7:55 PM 32.0 °F 21.6 °F 17.6 °F 55% 30.17 in 10.0 mi WNW 15.0 mph 27.6 mph N/A   Clear
8:15 PM 32.0 °F 22.5 °F 17.6 °F 55% 30.18 in 10.0 mi WNW 12.7 mph 26.5 mph N/A   Clear
8:35 PM 32.0 °F 22.5 °F 17.6 °F 55% 30.18 in 10.0 mi WNW 12.7 mph 25.3 mph N/A   Clear
8:45 PM 32.0 °F 22.1 °F 17.6 °F 55% 30.19 in 10.0 mi WNW 13.8 mph 25.3 mph N/A   Clear
8:55 PM 32.0 °F 21.2 °F 17.6 °F 55% 30.19 in 10.0 mi WNW 16.1 mph 23.0 mph N/A   Clear
9:15 PM 32.0 °F 23.0 °F 17.6 °F 55% 30.20 in 10.0 mi West 11.5 mph 20.7 mph N/A   Clear
9:35 PM 32.0 °F 24.8 °F 17.6 °F 55% 30.21 in 10.0 mi WNW 8.1 mph 16.1 mph N/A   Clear
9:55 PM 30.2 °F 21.9 °F 17.6 °F 60% 30.21 in 10.0 mi West 9.2 mph 24.2 mph N/A   Clear
10:15 PM 30.2 °F 20.2 °F 15.8 °F 55% 30.21 in 10.0 mi WNW 12.7 mph 20.7 mph N/A   Clear
10:35 PM 30.2 °F 21.3 °F 15.8 °F 55% 30.22 in 10.0 mi WNW 10.4 mph 19.6 mph N/A   Clear
10:55 PM 30.2 °F 21.9 °F 14.0 °F 51% 30.22 in 10.0 mi West 9.2 mph 25.3 mph N/A   Clear
11:15 PM 30.2 °F 21.3 °F 14.0 °F 51% 30.23 in 10.0 mi West 10.4 mph 18.4 mph N/A   Clear
11:35 PM 28.4 °F 18.5 °F 14.0 °F 55% 30.23 in 10.0 mi West 11.5 mph 23.0 mph N/A   Clear
11:55 PM 30.2 °F 21.3 °F 12.2 °F 47% 30.23 in 10.0 mi WNW 10.4 mph 17.3 mph N/A   Clear